Regional Weather Roundup
Issued by NWS Charleston, WV

Home | Current Version | Previous Version | Graphics & Text | Print | Product List | Glossary On
Versions: 1 2 3 4 5 6 7 8 9 10 11 12 13 14 15 16 17 18 19 20 21 22 23 24 25 26 27 28 29 30 31 32 33 34 35 36 37 38 39 40 41 42 43 44 45 46 47 48 49 50
000
ASUS41 KRLX 260710
RWRRLX
West Virginia Regional Weather Roundup
National Weather Service Charleston WV
200 AM EST MON JAN 26 2015

Note: "fair" indicates few or no clouds below 12,000 feet with no
significant weather and/or obstructions to visibility.

WVZ003-260800-
Northern Panhandle of West Virginia

CITY           SKY/WX    TMP DP  RH WIND       PRES   REMARKS
WHEELING       CLOUDY    30  28  92 NE7       29.71F
$$

WVZ009-260800-
Northwest West Virginia

CITY           SKY/WX    TMP DP  RH WIND       PRES   REMARKS
PARKERSBURG    LGT RAIN  37  35  92 NE5       29.70F FOG
$$

WVZ006-260800-
Western West Virginia

CITY           SKY/WX    TMP DP  RH WIND       PRES   REMARKS
HUNTINGTON     CLOUDY    39  39 100 SE3       29.63F FOG
$$

WVZ015-260800-
West Central West Virginia

CITY           SKY/WX    TMP DP  RH WIND       PRES   REMARKS
CHARLESTON     LGT RAIN  39  38  96 NE3       29.64F FOG
$$

WVZ022-031-260800-
North Central West Virginia

CITY           SKY/WX    TMP DP  RH WIND       PRES   REMARKS
CLARKSBURG     LGT RAIN  35  35 100 NE6       29.68F FOG
MORGANTOWN     MIX PCPN  34  31  88 N3        29.70F VSB 3/4
$$

WVZ025-035-042-045-260800-
Southern West Virginia

CITY           SKY/WX    TMP DP  RH WIND       PRES   REMARKS
BECKLEY        LGT RAIN  40  31  70 SE3       29.62F
LOGAN          CLOUDY    39  39 100 CALM      29.62F
BLUEFIELD      CLOUDY    42  28  57 S3        29.62F
LEWISBURG      CLOUDY    36  33  90 N6        29.66S
$$

WVZ047-260800-
Northern Mountains of West Virginia

CITY           SKY/WX    TMP DP  RH WIND       PRES   REMARKS
ELKINS         CLOUDY    34  34 100 CALM      29.67F FOG
$$

WVZ052-260800-
Eastern Panhandle of West Virginia

CITY           SKY/WX    TMP DP  RH WIND       PRES   REMARKS
MARTINSBURG    LGT RAIN  36  32  85 N6        29.81S FOG
PETERSBURG     MIX PCPN  37  37 100 CALM      29.76F
$$


USA.gov is the U.S. government's official web portal to all federal, state and local government web resources and services.